Tracking 20242 objects as of 25-Jan-2020
HD Live streaming from Space Station
objects crossing your sky now

GSLV R/B


GSLV R/B is no longer on orbit


NORAD ID: 43242
Int'l Code: 2018-027B
Perigee: N/A
Apogee: N/A
Inclination: N/A
Period: N/A
Semi major axis: N/A
RCS: N/A
Launch date: March 29, 2018
Source: India (IND)
Launch site: SRIHARIKOTA (SRI)
Decay date: 2019-12-04

Note: This is a ROCKET BODY
aabbcc
Your satellite tracking list
Your tracking list is empty




NASA's NSSDC Master Catalog

Two Line Element Set (TLE):
1 43242U 18027B   19338.25318454  .69860662 -11923-4  13293-2 0  9993
2 43242  20.1874 148.2408 0659333  23.3113 170.5113 15.01629058 23367
Source of the keplerian elements: AFSPC